Zurück zum Katalog

FENGYUN 1C DEB

AktivPO
NORAD 30106·DEBRIS·🇨🇳 China

Gestartet May 10, 1999 von Taiyuan Satellite Launch Center

Loading…

Nächste Überflüge (nächste 24 Stunden)

TLE

AktuellSource: Space-Track

Epoche: Sep 13, 2026, 19:48 UTC

1 30106U 99025RK  26256.82504007  .00103072  00000-0  45069-2 0  9991
2 30106  98.9113 209.8486 0026359  32.4283  23.9288 15.21318752 26619

Verfolge FENGYUN 1C DEB in Echtzeit mit AllMySat

Download on the App Store